| time (UTC) | temp F | wind direction | speed MPH | gust MPH | rain 1hr in | rain 24hr in | rain mn in | humidity % | barometer mb |
| 20260903035658 | 75 | 286 | 0.0 | 0.0 | 0.00 | 0.00 | 0.00 | 93 | 1021.0 |
| 20260903035154 | 75 | 286 | 0.0 | 0.0 | 0.00 | 0.00 | 0.00 | 93 | 1021.0 |
| 20260903034653 | 75 | 286 | 0.0 | 0.0 | 0.00 | 0.00 | 0.00 | 93 | 1020.9 |
| 20260903034149 | 75 | 286 | 0.0 | 0.0 | 0.00 | 0.00 | 0.00 | 93 | 1020.9 |
| 20260903033644 | 75 | 286 | 0.0 | 0.0 | 0.00 | 0.00 | 0.00 | 93 | 1021.0 |
| 20260903033143 | 76 | 286 | 0.0 | 0.0 | 0.00 | 0.00 | 0.00 | 93 | 1021.1 |
| 20260903032639 | 76 | 286 | 0.0 | 0.0 | 0.00 | 0.00 | 0.00 | 93 | 1021.2 |
| 20260903032134 | 76 | 286 | 0.0 | 0.0 | 0.00 | 0.00 | 0.00 | 92 | 1021.4 |
| 20260903031630 | 76 | 286 | 0.0 | 0.0 | 0.00 | 0.00 | 0.00 | 92 | 1021.3 |
| 20260903031125 | 76 | 286 | 0.0 | 0.0 | 0.00 | 0.00 | 0.00 | 92 | 1021.1 |
| 20260903030620 | 76 | 286 | 0.0 | 0.0 | 0.00 | 0.00 | 0.00 | 92 | 1021.2 |
| 20260903030116 | 76 | 286 | 0.0 | 0.0 | 0.00 | 0.00 | 0.00 | 91 | 1021.3 |
| 20260903025611 | 76 | 286 | 0.0 | 0.0 | 0.00 | 0.00 | 0.00 | 91 | 1021.4 |
| 20260903025106 | 76 | 286 | 0.0 | 0.0 | 0.00 | 0.00 | 0.00 | 90 | 1021.5 |
| 20260903024601 | 77 | 286 | 0.0 | 0.0 | 0.00 | 0.00 | 0.00 | 90 | 1021.5 |
| 20260903024055 | 77 | 286 | 0.0 | 0.0 | 0.00 | 0.00 | 0.00 | 90 | 1021.6 |
| 20260903023551 | 77 | 286 | 0.0 | 0.0 | 0.00 | 0.00 | 0.00 | 89 | 1021.4 |
| 20260903023046 | 77 | 286 | 0.0 | 0.0 | 0.00 | 0.00 | 0.00 | 89 | 1021.7 |
| 20260903022545 | 77 | 286 | 0.0 | 0.0 | 0.00 | 0.00 | 0.00 | 89 | 1021.7 |
| 20260903022044 | 77 | 286 | 0.0 | 0.0 | 0.00 | 0.00 | 0.00 | 90 | 1021.6 |
| 20260903021539 | 77 | 286 | 0.0 | 0.0 | 0.00 | 0.00 | 0.00 | 88 | 1021.7 |
| 20260903021034 | 77 | 286 | 0.0 | 0.0 | 0.00 | 0.00 | 0.00 | 88 | 1021.6 |
| 20260903020530 | 77 | 286 | 0.0 | 0.0 | 0.00 | 0.00 | 0.00 | 87 | 1021.9 |
| 20260903020029 | 78 | 286 | 0.0 | 0.0 | 0.00 | 0.00 | 0.00 | 88 | 1021.6 |
| 20260903015525 | 78 | 286 | 0.0 | 0.0 | 0.00 | 0.00 | 0.00 | 88 | 1021.4 |
| 20260903015020 | 78 | 286 | 0.0 | 0.0 | 0.00 | 0.00 | 0.00 | 87 | 1021.5 |
| 20260903014514 | 78 | 286 | 0.0 | 0.0 | 0.00 | 0.00 | 0.00 | 86 | 1021.4 |
| 20260903014009 | 78 | 286 | 0.0 | 0.0 | 0.00 | 0.00 | 0.00 | 87 | 1021.3 |
| 20260903013508 | 78 | 286 | 0.0 | 0.0 | 0.00 | 0.00 | 0.00 | 86 | 1021.1 |
| 20260903013009 | 79 | 286 | 0.0 | 0.0 | 0.00 | 0.00 | 0.00 | 85 | 1021.0 |
| 20260903012508 | 79 | 286 | 0.0 | 0.0 | 0.00 | 0.00 | 0.00 | 85 | 1021.0 |
| 20260903012007 | 79 | 286 | 0.0 | 0.0 | 0.00 | 0.00 | 0.00 | 84 | 1020.9 |
| 20260903011501 | 80 | 286 | 0.0 | 0.0 | 0.00 | 0.00 | 0.00 | 84 | 1020.7 |
| 20260903010956 | 80 | 286 | 0.0 | 0.0 | 0.00 | 0.00 | 0.00 | 84 | 1020.8 |
| 20260903010451 | 80 | 286 | 0.0 | 0.0 | 0.00 | 0.00 | 0.00 | 83 | 1020.7 |
| 20260903005949 | 80 | 286 | 0.0 | 0.0 | 0.00 | 0.00 | 0.00 | 83 | 1020.7 |
| 20260903005444 | 80 | 286 | 0.0 | 0.0 | 0.00 | 0.00 | 0.00 | 81 | 1020.8 |
| 20260903004941 | 81 | 286 | 0.0 | 0.0 | 0.00 | 0.00 | 0.00 | 82 | 1020.5 |
| 20260903004435 | 81 | 286 | 0.0 | 0.0 | 0.00 | 0.00 | 0.00 | 81 | 1020.6 |
| 20260903003931 | 81 | 286 | 0.0 | 0.0 | 0.00 | 0.00 | 0.00 | 80 | 1020.5 |
| 20260903003431 | 82 | 286 | 0.0 | 0.0 | 0.00 | 0.00 | 0.00 | 79 | 1020.6 |
| 20260903002926 | 82 | 286 | 0.0 | 0.0 | 0.00 | 0.00 | 0.00 | 79 | 1020.3 |
| 20260903002421 | 82 | 286 | 0.0 | 0.0 | 0.00 | 0.00 | 0.00 | 78 | 1020.4 |
| 20260903001920 | 83 | 286 | 0.0 | 0.0 | 0.00 | 0.00 | 0.00 | 76 | 1020.5 |
| 20260903001415 | 83 | 286 | 0.0 | 0.0 | 0.00 | 0.00 | 0.00 | 76 | 1020.5 |
| 20260903000915 | 84 | 286 | 0.0 | 0.0 | 0.00 | 0.00 | 0.00 | 75 | 1020.4 |
| 20260903000410 | 84 | 286 | 0.0 | 0.0 | 0.00 | 0.00 | 0.00 | 73 | 1020.4 |
| 20260902235908 | 85 | 286 | 0.0 | 0.0 | 0.00 | 0.00 | 0.00 | 72 | 1020.5 |
| 20260902235403 | 85 | 286 | 0.0 | 0.0 | 0.00 | 0.00 | 0.00 | 72 | 1020.4 |
| 20260902234903 | 86 | 286 | 0.0 | 0.0 | 0.00 | 0.00 | 0.00 | 70 | 1020.3 |
| 20260902234358 | 86 | 286 | 0.0 | 0.0 | 0.00 | 0.00 | 0.00 | 67 | 1020.6 |
| 20260902233856 | 87 | 286 | 0.0 | 0.0 | 0.00 | 0.00 | 0.00 | 67 | 1020.5 |
| 20260902233351 | 87 | 286 | 0.0 | 0.0 | 0.00 | 0.00 | 0.00 | 67 | 1020.3 |
| 20260902232850 | 89 | 286 | 0.0 | 0.0 | 0.00 | 0.00 | 0.00 | 63 | 1020.3 |
| 20260902232345 | 90 | 286 | 0.0 | 0.0 | 0.00 | 0.00 | 0.00 | 62 | 1020.4 |
| 20260902231844 | 91 | 286 | 0.0 | 0.0 | 0.00 | 0.00 | 0.00 | 59 | 1020.4 |
| 20260902231340 | 92 | 286 | 0.0 | 0.0 | 0.00 | 0.00 | 0.00 | 58 | 1020.4 |
| 20260902230835 | 94 | 286 | 0.0 | 0.0 | 0.00 | 0.00 | 0.00 | 55 | 1020.0 |
| 20260902230334 | 96 | 286 | 0.0 | 0.0 | 0.00 | 0.00 | 0.00 | 51 | 1020.3 |
| 20260902225828 | 99 | 286 | 0.0 | 0.0 | 0.00 | 0.00 | 0.00 | 49 | 1020.4 |
| 20260902225323 | 98 | 286 | 0.0 | 0.0 | 0.00 | 0.00 | 0.00 | 50 | 1020.1 |
| 20260902224822 | 99 | 286 | 0.0 | 0.0 | 0.00 | 0.00 | 0.00 | 50 | 1020.0 |
| 20260902224317 | 101 | 286 | 0.0 | 1.0 | 0.00 | 0.00 | 0.00 | 44 | 1020.1 |
| 20260902223813 | 101 | 285 | 0.0 | 1.0 | 0.00 | 0.00 | 0.00 | 45 | 1020.1 |
| 20260902223308 | 99 | 353 | 0.0 | 0.0 | 0.00 | 0.00 | 0.00 | 48 | 1020.3 |
| 20260902222807 | 98 | 325 | 0.0 | 2.0 | 0.00 | 0.00 | 0.00 | 48 | 1020.0 |
| 20260902222301 | 100 | 279 | 0.0 | 0.0 | 0.00 | 0.00 | 0.00 | 46 | 1020.1 |
| 20260902221755 | 100 | 285 | 1.0 | 2.0 | 0.00 | 0.00 | 0.00 | 45 | 1020.3 |
| 20260902221254 | 99 | 331 | 0.0 | 3.0 | 0.00 | 0.00 | 0.00 | 48 | 1020.4 |
| 20260902220750 | 98 | 332 | 2.0 | 2.0 | 0.00 | 0.00 | 0.00 | 48 | 1020.4 |
| 20260902220250 | 98 | 5 | 2.0 | 2.0 | 0.00 | 0.00 | 0.00 | 48 | 1020.4 |
| 20260902215745 | 98 | 356 | 2.0 | 2.0 | 0.00 | 0.00 | 0.00 | 50 | 1020.4 |
| 20260902215240 | 100 | 15 | 0.0 | 3.0 | 0.00 | 0.00 | 0.00 | 45 | 1020.5 |
| 20260902214736 | 101 | 254 | 0.0 | 0.0 | 0.00 | 0.00 | 0.00 | 44 | 1020.4 |
| 20260902214235 | 100 | 234 | 0.0 | 2.0 | 0.00 | 0.00 | 0.00 | 44 | 1020.4 |
| 20260902213731 | 99 | 334 | 0.0 | 2.0 | 0.00 | 0.00 | 0.00 | 45 | 1020.5 |
| 20260902213231 | 101 | 337 | 1.0 | 1.0 | 0.00 | 0.00 | 0.00 | 46 | 1020.4 |
| 20260902212730 | 102 | 277 | 0.0 | 2.0 | 0.00 | 0.00 | 0.00 | 45 | 1020.5 |
| 20260902212227 | 103 | 348 | 0.0 | 3.0 | 0.00 | 0.00 | 0.00 | 40 | 1020.4 |
| 20260902211723 | 103 | 270 | 0.0 | 0.0 | 0.00 | 0.00 | 0.00 | 46 | 1020.5 |
| 20260902211218 | 100 | 270 | 0.0 | 3.0 | 0.00 | 0.00 | 0.00 | 45 | 1020.6 |
| 20260902210712 | 102 | 270 | 0.0 | 2.0 | 0.00 | 0.00 | 0.00 | 46 | 1020.7 |
| 20260902210208 | 101 | 283 | 0.0 | 0.0 | 0.00 | 0.00 | 0.00 | 45 | 1020.6 |
| 20260902205705 | 99 | 276 | 2.0 | 2.0 | 0.00 | 0.00 | 0.00 | 44 | 1020.8 |
| 20260902205201 | 97 | 343 | 2.0 | 3.0 | 0.00 | 0.00 | 0.00 | 46 | 1020.7 |
| 20260902204655 | 98 | 288 | 3.0 | 3.0 | 0.00 | 0.00 | 0.00 | 45 | 1020.8 |
| 20260902204150 | 97 | 296 | 3.0 | 4.0 | 0.00 | 0.00 | 0.00 | 42 | 1020.7 |
| 20260902203645 | 97 | 286 | 1.0 | 4.0 | 0.00 | 0.00 | 0.00 | 44 | 1020.6 |
| 20260902203140 | 96 | 320 | 2.0 | 3.0 | 0.00 | 0.00 | 0.00 | 44 | 1020.6 |
| 20260902202635 | 97 | 331 | 0.0 | 4.0 | 0.00 | 0.00 | 0.00 | 46 | 1020.8 |
| 20260902202132 | 96 | 307 | 0.0 | 4.0 | 0.00 | 0.00 | 0.00 | 45 | 1020.7 |
| 20260902201628 | 97 | 352 | 1.0 | 4.0 | 0.00 | 0.00 | 0.00 | 47 | 1020.6 |
| 20260902201127 | 98 | 54 | 0.0 | 2.0 | 0.00 | 0.00 | 0.00 | 49 | 1020.9 |
| 20260902200621 | 97 | 15 | 0.0 | 4.0 | 0.00 | 0.00 | 0.00 | 46 | 1020.8 |
| 20260902200118 | 97 | 297 | 2.0 | 2.0 | 0.00 | 0.00 | 0.00 | 48 | 1020.9 |
| 20260902195608 | 96 | 19 | 2.0 | 3.0 | 0.00 | 0.00 | 0.00 | 49 | 1020.8 |
| 20260902195107 | 96 | 304 | 0.0 | 4.0 | 0.00 | 0.00 | 0.00 | 50 | 1021.0 |
| 20260902194606 | 96 | 352 | 0.0 | 7.0 | 0.00 | 0.00 | 0.00 | 50 | 1021.0 |
| 20260902194101 | 96 | 294 | 1.0 | 5.0 | 0.00 | 0.00 | 0.00 | 52 | 1021.1 |
| 20260902193558 | 96 | 319 | 0.0 | 3.0 | 0.00 | 0.00 | 0.00 | 55 | 1021.2 |
| 20260902193057 | 96 | 286 | 0.0 | 1.0 | 0.00 | 0.00 | 0.00 | 54 | 1021.0 |
| 20260902192555 | 97 | 280 | 0.0 | 2.0 | 0.00 | 0.00 | 0.00 | 56 | 1021.3 |
| 20260902192054 | 97 | 4 | 2.0 | 3.0 | 0.00 | 0.00 | 0.00 | 54 | 1021.2 |
| 20260902191549 | 98 | 294 | 0.0 | 3.0 | 0.00 | 0.00 | 0.00 | 52 | 1021.2 |
| 20260902191044 | 98 | 0 | 2.0 | 3.0 | 0.00 | 0.00 | 0.00 | 51 | 1021.3 |
| 20260902190540 | 99 | 291 | 0.0 | 0.0 | 0.00 | 0.00 | 0.00 | 51 | 1021.3 |
| 20260902190035 | 97 | 340 | 0.0 | 2.0 | 0.00 | 0.00 | 0.00 | 54 | 1021.5 |
| 20260902185531 | 95 | 270 | 0.0 | 0.0 | 0.00 | 0.00 | 0.00 | 55 | 1021.5 |
| 20260902185027 | 96 | 246 | 3.0 | 5.0 | 0.00 | 0.00 | 0.00 | 51 | 1021.7 |
| 20260902184521 | 98 | 75 | 1.0 | 2.0 | 0.00 | 0.00 | 0.00 | 53 | 1021.7 |
| 20260902184016 | 98 | 23 | 0.0 | 3.0 | 0.00 | 0.00 | 0.00 | 52 | 1021.7 |
| 20260902183513 | 99 | 291 | 0.0 | 0.0 | 0.00 | 0.00 | 0.00 | 52 | 1021.6 |
| 20260902183009 | 98 | 0 | 0.0 | 2.0 | 0.00 | 0.00 | 0.00 | 54 | 1021.7 |
| 20260902182505 | 98 | 286 | 0.0 | 1.0 | 0.00 | 0.00 | 0.00 | 52 | 1021.9 |
| 20260902182000 | 97 | 26 | 0.0 | 0.0 | 0.00 | 0.00 | 0.00 | 56 | 1021.9 |
| 20260902181456 | 95 | 0 | 0.0 | 3.0 | 0.00 | 0.00 | 0.00 | 52 | 1021.8 |
| 20260902180950 | 95 | 254 | 0.0 | 5.0 | 0.00 | 0.00 | 0.00 | 51 | 1021.8 |
| 20260902180445 | 95 | 345 | 0.0 | 4.0 | 0.00 | 0.00 | 0.00 | 55 | 1022.0 |
| 20260902175942 | 96 | 59 | 2.0 | 3.0 | 0.00 | 0.00 | 0.00 | 54 | 1022.1 |
| 20260902175441 | 95 | 17 | 0.0 | 2.0 | 0.00 | 0.00 | 0.00 | 58 | 1022.1 |
| 20260902174937 | 94 | 340 | 1.0 | 3.0 | 0.00 | 0.00 | 0.00 | 55 | 1022.0 |
| 20260902174434 | 94 | 283 | 3.0 | 5.0 | 0.00 | 0.00 | 0.00 | 57 | 1022.0 |
| 20260902173929 | 94 | 349 | 2.0 | 6.0 | 0.00 | 0.00 | 0.00 | 56 | 1022.2 |
| 20260902173428 | 94 | 322 | 2.0 | 3.0 | 0.00 | 0.00 | 0.00 | 53 | 1022.4 |
| 20260902172924 | 95 | 254 | 0.0 | 5.0 | 0.00 | 0.00 | 0.00 | 54 | 1022.2 |
| 20260902172423 | 94 | 15 | 0.0 | 3.0 | 0.00 | 0.00 | 0.00 | 53 | 1022.2 |
| 20260902171918 | 94 | 279 | 2.0 | 5.0 | 0.00 | 0.00 | 0.00 | 52 | 1022.3 |
| 20260902171413 | 94 | 57 | 3.0 | 3.0 | 0.00 | 0.00 | 0.00 | 53 | 1022.5 |
| 20260902170909 | 95 | 324 | 0.0 | 2.0 | 0.00 | 0.00 | 0.00 | 56 | 1022.4 |
| 20260902170405 | 93 | 270 | 2.0 | 4.0 | 0.00 | 0.00 | 0.00 | 53 | 1022.3 |
| 20260902165900 | 94 | 354 | 0.0 | 2.0 | 0.00 | 0.00 | 0.00 | 56 | 1022.5 |
| 20260902165359 | 93 | 254 | 0.0 | 4.0 | 0.00 | 0.00 | 0.00 | 54 | 1022.7 |
| 20260902164854 | 93 | 0 | 2.0 | 2.0 | 0.00 | 0.00 | 0.00 | 60 | 1022.6 |
| 20260902164349 | 92 | 337 | 0.0 | 2.0 | 0.00 | 0.00 | 0.00 | 57 | 1022.9 |
| 20260902163848 | 93 | 48 | 2.0 | 2.0 | 0.00 | 0.00 | 0.00 | 59 | 1022.6 |
| 20260902163343 | 93 | 0 | 0.0 | 3.0 | 0.00 | 0.00 | 0.00 | 57 | 1022.8 |
| 20260902162842 | 92 | 233 | 2.0 | 4.0 | 0.00 | 0.00 | 0.00 | 56 | 1022.8 |
| 20260902162337 | 92 | 327 | 2.0 | 4.0 | 0.00 | 0.00 | 0.00 | 60 | 1022.8 |
| 20260902161837 | 92 | 243 | 0.0 | 4.0 | 0.00 | 0.00 | 0.00 | 63 | 1022.8 |
| 20260902161332 | 92 | 348 | 2.0 | 3.0 | 0.00 | 0.00 | 0.00 | 60 | 1022.8 |
| 20260902160828 | 92 | 299 | 2.0 | 2.0 | 0.00 | 0.00 | 0.00 | 60 | 1023.0 |
| 20260902160324 | 93 | 337 | 1.0 | 3.0 | 0.00 | 0.00 | 0.00 | 65 | 1022.9 |
| 20260902155821 | 92 | 0 | 0.0 | 2.0 | 0.00 | 0.00 | 0.00 | 65 | 1022.8 |
| 20260902155320 | 91 | 0 | 0.0 | 2.0 | 0.00 | 0.00 | 0.00 | 65 | 1022.8 |
| 20260902154816 | 91 | 26 | 0.0 | 2.0 | 0.00 | 0.00 | 0.00 | 64 | 1023.0 |
| 20260902154312 | 91 | 0 | 0.0 | 2.0 | 0.00 | 0.00 | 0.00 | 66 | 1023.0 |
| 20260902153810 | 90 | 352 | 2.0 | 3.0 | 0.00 | 0.00 | 0.00 | 69 | 1023.0 |
| 20260902153304 | 90 | 331 | 0.0 | 2.0 | 0.00 | 0.00 | 0.00 | 68 | 1023.0 |
| 20260902152801 | 89 | 346 | 3.0 | 5.0 | 0.00 | 0.00 | 0.00 | 71 | 1023.1 |
| 20260902152256 | 89 | 300 | 1.0 | 5.0 | 0.00 | 0.00 | 0.00 | 68 | 1023.0 |
| 20260902151756 | 88 | 6 | 1.0 | 2.0 | 0.00 | 0.00 | 0.00 | 71 | 1023.0 |
| 20260902151251 | 88 | 7 | 1.0 | 3.0 | 0.00 | 0.00 | 0.00 | 71 | 1022.8 |
| 20260902150746 | 88 | 299 | 0.0 | 3.0 | 0.00 | 0.00 | 0.00 | 71 | 1023.0 |
| 20260902150243 | 87 | 334 | 1.0 | 4.0 | 0.00 | 0.00 | 0.00 | 75 | 1023.0 |
| 20260902145741 | 87 | 294 | 2.0 | 3.0 | 0.00 | 0.00 | 0.00 | 76 | 1023.1 |
| 20260902145237 | 86 | 353 | 0.0 | 3.0 | 0.00 | 0.00 | 0.00 | 76 | 1023.0 |
| 20260902144732 | 87 | 249 | 0.0 | 3.0 | 0.00 | 0.00 | 0.00 | 77 | 1023.1 |
| 20260902144228 | 86 | 331 | 0.0 | 2.0 | 0.00 | 0.00 | 0.00 | 79 | 1023.1 |
| 20260902143723 | 85 | 325 | 0.0 | 0.0 | 0.00 | 0.00 | 0.00 | 78 | 1023.0 |
| 20260902143218 | 84 | 0 | 0.0 | 0.0 | 0.00 | 0.00 | 0.00 | 79 | 1022.9 |
| 20260902142714 | 84 | 306 | 0.0 | 3.0 | 0.00 | 0.00 | 0.00 | 78 | 1022.9 |
| 20260902142209 | 84 | 306 | 1.0 | 3.0 | 0.00 | 0.00 | 0.00 | 78 | 1023.0 |
| 20260902141704 | 83 | 5 | 0.0 | 2.0 | 0.00 | 0.00 | 0.00 | 84 | 1023.0 |
| 20260902141159 | 83 | 262 | 0.0 | 2.0 | 0.00 | 0.00 | 0.00 | 83 | 1023.1 |
| 20260902140654 | 83 | 352 | 0.0 | 2.0 | 0.00 | 0.00 | 0.00 | 82 | 1023.0 |
| 20260902140149 | 82 | 270 | 0.0 | 1.0 | 0.00 | 0.00 | 0.00 | 84 | 1023.0 |
| 20260902135648 | 82 | 275 | 2.0 | 2.0 | 0.00 | 0.00 | 0.00 | 86 | 1022.8 |
| 20260902135144 | 81 | 289 | 0.0 | 3.0 | 0.00 | 0.00 | 0.00 | 89 | 1022.9 |
| 20260902134639 | 81 | 263 | 0.0 | 0.0 | 0.00 | 0.00 | 0.00 | 89 | 1022.9 |
| 20260902134138 | 80 | 279 | 0.0 | 1.0 | 0.00 | 0.00 | 0.00 | 90 | 1023.0 |
| 20260902133634 | 80 | 270 | 0.0 | 3.0 | 0.00 | 0.00 | 0.00 | 89 | 1022.8 |
| 20260902133134 | 79 | 20 | 1.0 | 2.0 | 0.00 | 0.00 | 0.00 | 91 | 1023.0 |
| 20260902132629 | 78 | 286 | 0.0 | 2.0 | 0.00 | 0.00 | 0.00 | 94 | 1023.1 |
| 20260902132124 | 77 | 0 | 0.0 | 0.0 | 0.00 | 0.00 | 0.00 | 99 | 1023.2 |
| 20260902131620 | 76 | 292 | 2.0 | 3.0 | 0.00 | 0.00 | 0.00 | 99 | 1023.4 |
| 20260902131115 | 76 | 8 | 0.0 | 0.0 | 0.00 | 0.00 | 0.00 | 99 | 1023.2 |
| 20260902130611 | 75 | 0 | 0.0 | 1.0 | 0.00 | 0.00 | 0.00 | 99 | 1023.1 |
| 20260902130106 | 75 | 337 | 0.0 | 2.0 | 0.00 | 0.00 | 0.00 | 99 | 1023.3 |
| 20260902125602 | 75 | 345 | 0.0 | 0.0 | 0.00 | 0.00 | 0.00 | 99 | 1023.2 |
| 20260902125057 | 75 | 345 | 0.0 | 1.0 | 0.00 | 0.00 | 0.00 | 99 | 1023.1 |
| 20260902124554 | 75 | 286 | 0.0 | 0.0 | 0.00 | 0.00 | 0.00 | 99 | 1023.1 |
| 20260902124054 | 74 | 286 | 0.0 | 0.0 | 0.00 | 0.00 | 0.00 | 99 | 1023.0 |
| 20260902123549 | 74 | 286 | 0.0 | 1.0 | 0.00 | 0.00 | 0.00 | 99 | 1023.0 |
| 20260902123044 | 74 | 8 | 0.0 | 0.0 | 0.00 | 0.00 | 0.00 | 99 | 1022.9 |
| 20260902122543 | 74 | 286 | 0.0 | 0.0 | 0.00 | 0.00 | 0.00 | 99 | 1023.1 |
| 20260902122039 | 73 | 286 | 0.0 | 0.0 | 0.00 | 0.00 | 0.00 | 99 | 1023.1 |
| 20260902121539 | 73 | 286 | 0.0 | 0.0 | 0.00 | 0.00 | 0.00 | 99 | 1022.9 |
| 20260902121034 | 73 | 286 | 0.0 | 0.0 | 0.00 | 0.00 | 0.00 | 99 | 1023.0 |
| 20260902120531 | 73 | 286 | 0.0 | 0.0 | 0.00 | 0.00 | 0.00 | 99 | 1023.0 |
| 20260902120027 | 72 | 286 | 0.0 | 0.0 | 0.00 | 0.00 | 0.00 | 99 | 1022.7 |
| 20260902115521 | 72 | 286 | 0.0 | 0.0 | 0.00 | 0.00 | 0.00 | 99 | 1023.1 |
| 20260902115018 | 72 | 286 | 0.0 | 0.0 | 0.00 | 0.00 | 0.00 | 99 | 1023.0 |
| 20260902114513 | 72 | 286 | 0.0 | 0.0 | 0.00 | 0.00 | 0.00 | 99 | 1022.9 |
| 20260902114008 | 72 | 286 | 0.0 | 0.0 | 0.00 | 0.00 | 0.00 | 99 | 1022.9 |
| 20260902113503 | 72 | 286 | 0.0 | 0.0 | 0.00 | 0.00 | 0.00 | 99 | 1022.8 |
| 20260902113004 | 72 | 286 | 0.0 | 0.0 | 0.00 | 0.00 | 0.00 | 99 | 1022.8 |
| 20260902112459 | 72 | 286 | 0.0 | 0.0 | 0.00 | 0.00 | 0.00 | 99 | 1022.7 |
| 20260902111955 | 71 | 286 | 0.0 | 0.0 | 0.00 | 0.00 | 0.00 | 99 | 1022.7 |
| 20260902111451 | 71 | 0 | 0.0 | 0.0 | 0.00 | 0.00 | 0.00 | 99 | 1022.8 |
| 20260902110947 | 71 | 0 | 0.0 | 0.0 | 0.00 | 0.00 | 0.00 | 99 | 1022.6 |
| 20260902110443 | 71 | 0 | 0.0 | 0.0 | 0.00 | 0.00 | 0.00 | 99 | 1022.6 |
| 20260902105937 | 71 | 0 | 0.0 | 0.0 | 0.00 | 0.00 | 0.00 | 99 | 1022.5 |
| 20260902105433 | 71 | 0 | 0.0 | 0.0 | 0.00 | 0.00 | 0.00 | 99 | 1022.6 |
| 20260902104927 | 71 | 0 | 0.0 | 0.0 | 0.00 | 0.00 | 0.00 | 99 | 1022.6 |
| 20260902104423 | 71 | 0 | 0.0 | 0.0 | 0.00 | 0.00 | 0.00 | 99 | 1022.6 |
| 20260902103923 | 71 | 0 | 0.0 | 0.0 | 0.00 | 0.00 | 0.00 | 99 | 1022.5 |
| 20260902103418 | 71 | 0 | 0.0 | 0.0 | 0.00 | 0.00 | 0.00 | 99 | 1022.5 |
| 20260902102913 | 71 | 0 | 0.0 | 0.0 | 0.00 | 0.00 | 0.00 | 99 | 1022.7 |
| 20260902102411 | 71 | 0 | 0.0 | 0.0 | 0.00 | 0.00 | 0.00 | 99 | 1022.6 |
| 20260902101907 | 71 | 0 | 0.0 | 0.0 | 0.00 | 0.00 | 0.00 | 99 | 1022.6 |
| 20260902101401 | 72 | 0 | 0.0 | 0.0 | 0.00 | 0.00 | 0.00 | 99 | 1022.4 |
| 20260902100900 | 72 | 0 | 0.0 | 0.0 | 0.00 | 0.00 | 0.00 | 99 | 1022.3 |
| 20260902100400 | 72 | 0 | 0.0 | 0.0 | 0.00 | 0.00 | 0.00 | 99 | 1022.2 |
| 20260902095855 | 72 | 0 | 0.0 | 0.0 | 0.00 | 0.00 | 0.00 | 99 | 1022.1 |
| 20260902095354 | 72 | 0 | 0.0 | 0.0 | 0.00 | 0.00 | 0.00 | 99 | 1022.3 |
| 20260902094849 | 72 | 0 | 0.0 | 0.0 | 0.00 | 0.00 | 0.00 | 99 | 1022.0 |
| 20260902094345 | 72 | 0 | 0.0 | 0.0 | 0.00 | 0.00 | 0.00 | 99 | 1022.3 |
| 20260902093844 | 71 | 0 | 0.0 | 0.0 | 0.00 | 0.00 | 0.00 | 99 | 1022.2 |
| 20260902093340 | 72 | 0 | 0.0 | 0.0 | 0.00 | 0.00 | 0.00 | 99 | 1022.1 |
| 20260902092838 | 72 | 0 | 0.0 | 0.0 | 0.00 | 0.00 | 0.00 | 99 | 1022.2 |
| 20260902092334 | 72 | 0 | 0.0 | 0.0 | 0.00 | 0.00 | 0.00 | 99 | 1022.3 |
| 20260902091829 | 72 | 0 | 0.0 | 0.0 | 0.00 | 0.00 | 0.00 | 99 | 1022.2 |
| 20260902091325 | 72 | 0 | 0.0 | 0.0 | 0.00 | 0.00 | 0.00 | 99 | 1022.1 |
| 20260902090821 | 72 | 0 | 0.0 | 1.0 | 0.00 | 0.00 | 0.00 | 99 | 1022.1 |
| 20260902090320 | 72 | 353 | 0.0 | 0.0 | 0.00 | 0.00 | 0.00 | 99 | 1022.1 |
| 20260902085819 | 72 | 353 | 0.0 | 0.0 | 0.00 | 0.00 | 0.00 | 99 | 1022.0 |
| 20260902085315 | 72 | 353 | 0.0 | 0.0 | 0.00 | 0.00 | 0.00 | 99 | 1021.9 |
| 20260902084810 | 72 | 353 | 0.0 | 0.0 | 0.00 | 0.00 | 0.00 | 99 | 1022.0 |
| 20260902084307 | 72 | 353 | 0.0 | 0.0 | 0.00 | 0.00 | 0.00 | 99 | 1022.0 |
| 20260902083756 | 72 | 345 | 0.0 | 1.0 | 0.00 | 0.00 | 0.00 | 99 | 1021.7 |
| 20260902083256 | 72 | 75 | 0.0 | 0.0 | 0.00 | 0.00 | 0.00 | 99 | 1022.0 |
| 20260902082751 | 72 | 75 | 0.0 | 0.0 | 0.00 | 0.00 | 0.00 | 99 | 1021.7 |
| 20260902082247 | 72 | 75 | 0.0 | 0.0 | 0.00 | 0.00 | 0.00 | 99 | 1021.9 |
| 20260902081744 | 72 | 75 | 0.0 | 0.0 | 0.00 | 0.00 | 0.00 | 99 | 1021.7 |
| 20260902081239 | 72 | 75 | 0.0 | 0.0 | 0.00 | 0.00 | 0.00 | 99 | 1021.6 |
| 20260902080734 | 72 | 75 | 0.0 | 0.0 | 0.00 | 0.00 | 0.00 | 99 | 1021.7 |
| 20260902080231 | 72 | 75 | 0.0 | 0.0 | 0.00 | 0.00 | 0.00 | 99 | 1021.8 |
| 20260902075730 | 73 | 74 | 0.0 | 2.0 | 0.00 | 0.00 | 0.00 | 99 | 1021.8 |
| 20260902075226 | 73 | 15 | 0.0 | 1.0 | 0.00 | 0.00 | 0.00 | 99 | 1021.6 |
| 20260902074726 | 72 | 279 | 0.0 | 0.0 | 0.00 | 0.00 | 0.00 | 99 | 1021.8 |
| 20260902074222 | 72 | 270 | 0.0 | 1.0 | 0.00 | 0.00 | 0.00 | 99 | 1021.6 |
| 20260902073717 | 73 | 8 | 0.0 | 0.0 | 0.00 | 0.00 | 0.00 | 99 | 1021.7 |
| 20260902073213 | 73 | 90 | 0.0 | 0.0 | 0.00 | 0.00 | 0.00 | 99 | 1021.5 |
| 20260902072709 | 73 | 90 | 0.0 | 0.0 | 0.00 | 0.00 | 0.00 | 99 | 1021.8 |
| 20260902072205 | 73 | 60 | 0.0 | 2.0 | 0.00 | 0.00 | 0.00 | 99 | 1021.5 |
| 20260902071701 | 73 | 96 | 0.0 | 0.0 | 0.00 | 0.00 | 0.00 | 99 | 1021.7 |
| 20260902071155 | 72 | 96 | 0.0 | 0.0 | 0.00 | 0.00 | 0.00 | 99 | 1021.4 |
| 20260902070652 | 73 | 96 | 0.0 | 0.0 | 0.00 | 0.00 | 0.00 | 99 | 1021.6 |
| 20260902070151 | 73 | 96 | 0.0 | 0.0 | 0.00 | 0.00 | 0.00 | 99 | 1021.8 |
| 20260902065650 | 73 | 96 | 0.0 | 0.0 | 0.00 | 0.00 | 0.00 | 99 | 1021.9 |
| 20260902065146 | 73 | 96 | 0.0 | 0.0 | 0.00 | 0.00 | 0.00 | 99 | 1021.8 |
| 20260902064641 | 73 | 96 | 0.0 | 0.0 | 0.00 | 0.00 | 0.00 | 99 | 1021.6 |
| 20260902064136 | 73 | 29 | 0.0 | 1.0 | 0.00 | 0.00 | 0.00 | 99 | 1021.7 |
| 20260902063632 | 73 | 12 | 0.0 | 0.0 | 0.00 | 0.00 | 0.00 | 99 | 1021.7 |
| 20260902063127 | 73 | 12 | 0.0 | 0.0 | 0.00 | 0.00 | 0.00 | 99 | 1021.7 |
| 20260902062625 | 73 | 12 | 0.0 | 0.0 | 0.00 | 0.00 | 0.00 | 99 | 1021.7 |
| 20260902062121 | 73 | 345 | 0.0 | 0.0 | 0.00 | 0.00 | 0.00 | 99 | 1021.7 |
| 20260902061620 | 73 | 345 | 0.0 | 1.0 | 0.00 | 0.00 | 0.00 | 99 | 1021.8 |
| 20260902061116 | 73 | 20 | 0.0 | 0.0 | 0.00 | 0.00 | 0.00 | 99 | 1021.7 |
| 20260902060613 | 73 | 20 | 0.0 | 1.0 | 0.00 | 0.00 | 0.00 | 99 | 1021.7 |
| 20260902060109 | 73 | 55 | 0.0 | 0.0 | 0.00 | 0.00 | 0.00 | 99 | 1021.6 |
| 20260902055604 | 73 | 55 | 0.0 | 0.0 | 0.00 | 0.00 | 0.00 | 99 | 1021.6 |
| 20260902055059 | 74 | 55 | 0.0 | 0.0 | 0.00 | 0.00 | 0.00 | 99 | 1021.8 |
| 20260902054554 | 74 | 55 | 0.0 | 0.0 | 0.00 | 0.00 | 0.00 | 99 | 1021.7 |
| 20260902054050 | 74 | 55 | 0.0 | 0.0 | 0.00 | 0.00 | 0.00 | 99 | 1021.8 |
| 20260902053545 | 73 | 55 | 0.0 | 0.0 | 0.00 | 0.00 | 0.00 | 99 | 1021.5 |
| 20260902053045 | 73 | 55 | 0.0 | 0.0 | 0.00 | 0.00 | 0.00 | 99 | 1021.6 |
| 20260902052539 | 74 | 55 | 0.0 | 0.0 | 0.00 | 0.00 | 0.00 | 99 | 1021.7 |
| 20260902052035 | 74 | 51 | 0.0 | 0.0 | 0.00 | 0.00 | 0.00 | 98 | 1021.6 |
| 20260902051535 | 74 | 51 | 0.0 | 0.0 | 0.00 | 0.00 | 0.00 | 98 | 1021.9 |
| 20260902051033 | 74 | 51 | 0.0 | 0.0 | 0.00 | 0.00 | 0.00 | 98 | 1021.6 |
| 20260902050529 | 74 | 51 | 0.0 | 0.0 | 0.00 | 0.00 | 0.00 | 98 | 1021.6 |
| 20260902050024 | 74 | 51 | 0.0 | 0.0 | 0.00 | 0.00 | 0.00 | 98 | 1021.4 |
| 20260902045520 | 74 | 51 | 0.0 | 0.0 | 0.00 | 0.00 | 0.00 | 98 | 1021.6 |
| 20260902045016 | 74 | 51 | 0.0 | 0.0 | 0.00 | 0.00 | 0.00 | 98 | 1021.5 |
| 20260902044516 | 74 | 51 | 0.0 | 0.0 | 0.00 | 0.00 | 0.00 | 97 | 1021.7 |
| 20260902044012 | 75 | 74 | 0.0 | 2.0 | 0.00 | 0.00 | 0.00 | 97 | 1021.7 |
| 20260902043507 | 74 | 63 | 0.0 | 0.0 | 0.00 | 0.00 | 0.00 | 97 | 1021.7 |
| 20260902043006 | 74 | 63 | 0.0 | 0.0 | 0.00 | 0.00 | 0.00 | 97 | 1021.6 |
| 20260902042501 | 75 | 63 | 0.0 | 0.0 | 0.00 | 0.00 | 0.00 | 97 | 1021.4 |
| 20260902041956 | 75 | 63 | 0.0 | 0.0 | 0.00 | 0.00 | 0.00 | 97 | 1021.6 |
| 20260902041450 | 75 | 63 | 0.0 | 0.0 | 0.00 | 0.00 | 0.00 | 97 | 1021.6 |
| 20260902040945 | 75 | 63 | 0.0 | 0.0 | 0.00 | 0.00 | 0.00 | 96 | 1021.5 |
| 20260902040445 | 75 | 63 | 0.0 | 0.0 | 0.00 | 0.00 | 0.00 | 96 | 1021.4 |
| 20260902035943 | 75 | 82 | 0.0 | 0.0 | 0.00 | 0.00 | 0.00 | 96 | 1021.4 |